Year,Month,Day,Hour,Minute,Value (Times are PST for temperature in C)
2012,04,09,00,00,8.90
2012,04,09,00,01,8.90
2012,04,09,00,02,8.90
2012,04,09,00,03,8.90
2012,04,09,00,04,8.80
2012,04,09,00,05,8.80
2012,04,09,00,06,8.80
2012,04,09,00,07,8.80
2012,04,09,00,08,8.70
2012,04,09,00,09,8.70
2012,04,09,00,10,8.60
2012,04,09,00,11,8.60
2012,04,09,00,12,8.60
2012,04,09,00,13,8.60
2012,04,09,00,14,8.60
2012,04,09,00,15,8.50
2012,04,09,00,16,8.50
2012,04,09,00,17,8.50
2012,04,09,00,18,8.40
2012,04,09,00,19,8.40
2012,04,09,00,20,8.40
2012,04,09,00,21,8.40
2012,04,09,00,22,8.40
2012,04,09,00,23,8.40
2012,04,09,00,24,8.40
2012,04,09,00,25,8.40
2012,04,09,00,26,8.40
2012,04,09,00,27,8.40
2012,04,09,00,28,8.40
2012,04,09,00,29,8.40
2012,04,09,00,30,8.40
2012,04,09,00,31,8.40
2012,04,09,00,32,8.40
2012,04,09,00,33,8.50
2012,04,09,00,34,8.50
2012,04,09,00,35,8.50
2012,04,09,00,36,8.50
2012,04,09,00,37,8.50
2012,04,09,00,38,8.50
2012,04,09,00,39,8.50
2012,04,09,00,40,8.50
2012,04,09,00,41,8.50
2012,04,09,00,42,8.50
2012,04,09,00,43,8.50
2012,04,09,00,44,8.50
2012,04,09,00,45,8.50
2012,04,09,00,46,8.50
2012,04,09,00,47,8.50
2012,04,09,00,48,8.50
2012,04,09,00,49,8.50
2012,04,09,00,50,8.50
2012,04,09,00,51,8.50
2012,04,09,00,52,8.60
2012,04,09,00,53,8.60
2012,04,09,00,54,8.60
2012,04,09,00,55,8.60
2012,04,09,00,56,8.60
2012,04,09,00,57,8.60
2012,04,09,00,58,8.60
2012,04,09,00,59,8.60
2012,04,09,01,00,8.60
2012,04,09,01,01,8.60
2012,04,09,01,02,8.70
2012,04,09,01,03,8.70
2012,04,09,01,04,8.70
2012,04,09,01,05,8.70
2012,04,09,01,06,8.80
2012,04,09,01,07,8.80
2012,04,09,01,08,8.80
2012,04,09,01,09,8.80
2012,04,09,01,10,8.80
2012,04,09,01,11,8.80
2012,04,09,01,12,8.80
2012,04,09,01,13,8.80
2012,04,09,01,14,8.80
2012,04,09,01,15,8.80
2012,04,09,01,16,8.80
2012,04,09,01,17,8.80
2012,04,09,01,18,8.80
2012,04,09,01,19,8.70
2012,04,09,01,20,8.70
2012,04,09,01,21,8.70
2012,04,09,01,22,8.70
2012,04,09,01,23,8.70
2012,04,09,01,24,8.70
2012,04,09,01,25,8.70
2012,04,09,01,26,8.70
2012,04,09,01,27,8.60
2012,04,09,01,28,8.60
2012,04,09,01,29,8.60
2012,04,09,01,30,8.60
2012,04,09,01,31,8.60
2012,04,09,01,32,8.60
2012,04,09,01,33,8.60
2012,04,09,01,34,8.60
2012,04,09,01,35,8.60
2012,04,09,01,36,8.60
2012,04,09,01,37,8.70
2012,04,09,01,38,8.80
2012,04,09,01,39,8.80
2012,04,09,01,40,8.90
2012,04,09,01,41,8.90
2012,04,09,01,42,9.00
2012,04,09,01,43,9.00
2012,04,09,01,44,9.00
2012,04,09,01,45,8.90
2012,04,09,01,46,8.90
2012,04,09,01,47,8.90
2012,04,09,01,48,8.90
2012,04,09,01,49,8.90
2012,04,09,01,50,8.80
2012,04,09,01,51,8.80
2012,04,09,01,52,8.80
2012,04,09,01,53,8.80
2012,04,09,01,54,8.80
2012,04,09,01,55,8.80
2012,04,09,01,56,8.80
2012,04,09,01,57,8.80
2012,04,09,01,58,8.90
2012,04,09,01,59,8.90
2012,04,09,02,00,8.90
2012,04,09,02,01,8.90
2012,04,09,02,02,8.90
2012,04,09,02,03,8.90
2012,04,09,02,04,8.90
2012,04,09,02,05,8.90
2012,04,09,02,06,8.90
2012,04,09,02,07,8.80
2012,04,09,02,08,8.80
2012,04,09,02,09,8.80
2012,04,09,02,10,8.80
2012,04,09,02,11,8.80
2012,04,09,02,12,8.80
2012,04,09,02,13,8.80
2012,04,09,02,14,8.80
2012,04,09,02,15,8.80
2012,04,09,02,16,8.80
2012,04,09,02,17,8.80
2012,04,09,02,18,8.80
2012,04,09,02,19,8.80
2012,04,09,02,20,8.80
2012,04,09,02,21,8.80
2012,04,09,02,22,8.80
2012,04,09,02,23,8.80
2012,04,09,02,24,8.70
2012,04,09,02,25,8.70
2012,04,09,02,26,8.70
2012,04,09,02,27,8.70
2012,04,09,02,28,8.60
2012,04,09,02,29,8.60
2012,04,09,02,30,8.60
2012,04,09,02,31,8.50
2012,04,09,02,32,8.50
2012,04,09,02,33,8.50
2012,04,09,02,34,8.40
2012,04,09,02,35,8.40
2012,04,09,02,36,8.40
2012,04,09,02,37,8.40
2012,04,09,02,38,8.40
2012,04,09,02,39,8.30
2012,04,09,02,40,8.30
2012,04,09,02,41,8.30
2012,04,09,02,42,8.30
2012,04,09,02,43,8.30
2012,04,09,02,44,8.30
2012,04,09,02,45,8.30
2012,04,09,02,46,8.30
2012,04,09,02,47,8.30
2012,04,09,02,48,8.30
2012,04,09,02,49,8.30
2012,04,09,02,50,8.30
2012,04,09,02,51,8.30
2012,04,09,02,52,8.30
2012,04,09,02,53,8.20
2012,04,09,02,54,8.20
2012,04,09,02,55,8.20
2012,04,09,02,56,8.20
2012,04,09,02,57,8.20
2012,04,09,02,58,8.20
2012,04,09,02,59,8.10
2012,04,09,03,00,8.10
2012,04,09,03,01,8.10
2012,04,09,03,02,8.10
2012,04,09,03,03,8.10
2012,04,09,03,04,8.00
2012,04,09,03,05,8.00
2012,04,09,03,06,8.00
2012,04,09,03,07,7.90
2012,04,09,03,08,7.90
2012,04,09,03,09,7.80
2012,04,09,03,10,7.80
2012,04,09,03,11,7.70
2012,04,09,03,12,7.70
2012,04,09,03,13,7.60
2012,04,09,03,14,7.60
2012,04,09,03,15,7.50
2012,04,09,03,16,7.50
2012,04,09,03,17,7.50
2012,04,09,03,18,7.40
2012,04,09,03,19,7.40
2012,04,09,03,20,7.40
2012,04,09,03,21,7.40
2012,04,09,03,22,7.40
2012,04,09,03,23,7.40
2012,04,09,03,24,7.40
2012,04,09,03,25,7.40
2012,04,09,03,26,7.40
2012,04,09,03,27,7.40
2012,04,09,03,28,7.40
2012,04,09,03,29,7.40
2012,04,09,03,30,7.40
2012,04,09,03,31,7.40
2012,04,09,03,32,7.30
2012,04,09,03,33,7.30
2012,04,09,03,34,7.30
2012,04,09,03,35,7.20
2012,04,09,03,36,7.20
2012,04,09,03,37,7.20
2012,04,09,03,38,7.20
2012,04,09,03,39,7.20
2012,04,09,03,40,7.10
2012,04,09,03,41,7.10
2012,04,09,03,42,7.10
2012,04,09,03,43,7.10
2012,04,09,03,44,7.10
2012,04,09,03,45,7.10
2012,04,09,03,46,7.20
2012,04,09,03,47,7.20
2012,04,09,03,48,7.20
2012,04,09,03,49,7.20
2012,04,09,03,50,7.20
2012,04,09,03,51,7.20
2012,04,09,03,52,7.30
2012,04,09,03,53,7.30
2012,04,09,03,54,7.30
2012,04,09,03,55,7.40
2012,04,09,03,56,7.40
2012,04,09,03,57,7.40
2012,04,09,03,58,7.40
2012,04,09,03,59,7.40
2012,04,09,04,00,7.40
2012,04,09,04,01,7.40
2012,04,09,04,02,7.40
2012,04,09,04,03,7.40
2012,04,09,04,04,7.30
2012,04,09,04,05,7.30
2012,04,09,04,06,7.30
2012,04,09,04,07,7.30
2012,04,09,04,08,7.30
2012,04,09,04,09,7.30
2012,04,09,04,10,7.30
2012,04,09,04,11,7.30
2012,04,09,04,12,7.30
2012,04,09,04,13,7.30
2012,04,09,04,14,7.40
2012,04,09,04,15,7.40
2012,04,09,04,16,7.50
2012,04,09,04,17,7.50
2012,04,09,04,18,7.60
2012,04,09,04,19,7.60
2012,04,09,04,20,7.70
2012,04,09,04,21,7.70
2012,04,09,04,22,7.70
2012,04,09,04,23,7.70
2012,04,09,04,24,7.70
2012,04,09,04,25,7.70
2012,04,09,04,26,7.70
2012,04,09,04,27,7.80
2012,04,09,04,28,7.80
2012,04,09,04,29,7.80
2012,04,09,04,30,7.80
2012,04,09,04,31,7.80
2012,04,09,04,32,7.80
2012,04,09,04,33,7.80
2012,04,09,04,34,7.70
2012,04,09,04,35,7.70
2012,04,09,04,36,7.70
2012,04,09,04,37,7.70
2012,04,09,04,38,7.70
2012,04,09,04,39,7.60
2012,04,09,04,40,7.60
2012,04,09,04,41,7.50
2012,04,09,04,42,7.50
2012,04,09,04,43,7.40
2012,04,09,04,44,7.40
2012,04,09,04,45,7.30
2012,04,09,04,46,7.30
2012,04,09,04,47,7.20
2012,04,09,04,48,7.20
2012,04,09,04,49,7.20
2012,04,09,04,50,7.20
2012,04,09,04,51,7.10
2012,04,09,04,52,7.10
2012,04,09,04,53,7.10
2012,04,09,04,54,7.10
2012,04,09,04,55,7.00
2012,04,09,04,56,7.00
2012,04,09,04,57,7.00
2012,04,09,04,58,7.00
2012,04,09,04,59,7.00
2012,04,09,05,00,7.00
2012,04,09,05,01,7.00
2012,04,09,05,02,7.00
2012,04,09,05,03,7.00
2012,04,09,05,04,7.00
2012,04,09,05,05,7.00
2012,04,09,05,06,7.10
2012,04,09,05,07,7.10
2012,04,09,05,08,7.10
2012,04,09,05,09,7.10
2012,04,09,05,10,7.10
2012,04,09,05,11,7.10
2012,04,09,05,12,7.10
2012,04,09,05,13,7.10
2012,04,09,05,14,7.10
2012,04,09,05,15,7.10
2012,04,09,05,16,7.10
2012,04,09,05,17,7.10
2012,04,09,05,18,7.10
2012,04,09,05,19,7.20
2012,04,09,05,20,7.20
2012,04,09,05,21,7.20
2012,04,09,05,22,7.20
2012,04,09,05,23,7.20
2012,04,09,05,24,7.20
2012,04,09,05,25,7.20
2012,04,09,05,26,7.30
2012,04,09,05,27,7.30
2012,04,09,05,28,7.30
2012,04,09,05,29,7.30
2012,04,09,05,30,7.30
2012,04,09,05,31,7.20
2012,04,09,05,32,7.20
2012,04,09,05,33,7.20
2012,04,09,05,34,7.20
2012,04,09,05,35,7.10
2012,04,09,05,36,7.10
2012,04,09,05,37,7.00
2012,04,09,05,38,7.00
2012,04,09,05,39,6.90
2012,04,09,05,40,6.90
2012,04,09,05,41,6.80
2012,04,09,05,42,6.80
2012,04,09,05,43,6.80
2012,04,09,05,44,6.80
2012,04,09,05,45,6.80
2012,04,09,05,46,6.70
2012,04,09,05,47,6.70
2012,04,09,05,48,6.70
2012,04,09,05,49,6.70
2012,04,09,05,50,6.70
2012,04,09,05,51,6.70
2012,04,09,05,52,6.70
2012,04,09,05,53,6.70
2012,04,09,05,54,6.60
2012,04,09,05,55,6.60
2012,04,09,05,56,6.60
2012,04,09,05,57,6.60
2012,04,09,05,58,6.60
2012,04,09,05,59,6.60
2012,04,09,06,00,6.60
2012,04,09,06,01,6.60
2012,04,09,06,02,6.60
2012,04,09,06,03,6.60
2012,04,09,06,04,6.60
2012,04,09,06,05,6.60
2012,04,09,06,06,6.60
2012,04,09,06,07,6.60
2012,04,09,06,08,6.60
2012,04,09,06,09,6.60
2012,04,09,06,10,6.60
2012,04,09,06,11,6.60
2012,04,09,06,12,6.60
2012,04,09,06,13,6.60
2012,04,09,06,14,6.60
2012,04,09,06,15,6.60
2012,04,09,06,16,6.60
2012,04,09,06,17,6.60
2012,04,09,06,18,6.70
2012,04,09,06,19,6.70
2012,04,09,06,20,6.70
2012,04,09,06,21,6.70
2012,04,09,06,22,6.70
2012,04,09,06,23,6.70
2012,04,09,06,24,6.70
2012,04,09,06,25,6.80
2012,04,09,06,26,6.80
2012,04,09,06,27,6.80
2012,04,09,06,28,6.80
2012,04,09,06,29,6.80
2012,04,09,06,30,6.80
2012,04,09,06,31,6.80
2012,04,09,06,32,6.80
2012,04,09,06,33,6.80
2012,04,09,06,34,6.80
2012,04,09,06,35,6.80
2012,04,09,06,36,6.80
2012,04,09,06,37,6.80
2012,04,09,06,38,6.80
2012,04,09,06,39,6.80
2012,04,09,06,40,6.80
2012,04,09,06,41,6.80
2012,04,09,06,42,6.80
2012,04,09,06,43,6.80
2012,04,09,06,44,6.80
2012,04,09,06,45,6.80
2012,04,09,06,46,6.80
2012,04,09,06,47,6.80
2012,04,09,06,48,6.80
2012,04,09,06,49,6.70
2012,04,09,06,50,6.70
2012,04,09,06,51,6.70
2012,04,09,06,52,6.70
2012,04,09,06,53,6.70
2012,04,09,06,54,6.70
2012,04,09,06,55,6.70
2012,04,09,06,56,6.70
2012,04,09,06,57,6.70
2012,04,09,06,58,6.80
2012,04,09,06,59,6.80
2012,04,09,07,00,6.80
2012,04,09,07,01,6.80
2012,04,09,07,02,6.80
2012,04,09,07,03,6.80
2012,04,09,07,04,6.80
2012,04,09,07,05,6.90
2012,04,09,07,06,6.90
2012,04,09,07,07,6.90
2012,04,09,07,08,6.90
2012,04,09,07,09,6.90
2012,04,09,07,10,7.00
2012,04,09,07,11,7.00
2012,04,09,07,12,7.10
2012,04,09,07,13,7.10
2012,04,09,07,14,7.10
2012,04,09,07,15,7.10
2012,04,09,07,16,7.10
2012,04,09,07,17,7.10
2012,04,09,07,18,7.10
2012,04,09,07,19,7.10
2012,04,09,07,20,7.10
2012,04,09,07,21,7.00
2012,04,09,07,22,7.00
2012,04,09,07,23,7.00
2012,04,09,07,24,6.90
2012,04,09,07,25,6.90
2012,04,09,07,26,6.90
2012,04,09,07,27,6.90
2012,04,09,07,28,6.90
2012,04,09,07,29,7.00
2012,04,09,07,30,7.00
2012,04,09,07,31,7.00
2012,04,09,07,32,7.00
2012,04,09,07,33,7.00
2012,04,09,07,34,6.90
2012,04,09,07,35,6.90
2012,04,09,07,36,6.90
2012,04,09,07,37,6.80
2012,04,09,07,38,6.80
2012,04,09,07,39,6.80
2012,04,09,07,40,6.80
2012,04,09,07,41,6.80
2012,04,09,07,42,6.70
2012,04,09,07,43,6.70
2012,04,09,07,44,6.70
2012,04,09,07,45,6.70
2012,04,09,07,46,6.80
2012,04,09,07,47,6.80
2012,04,09,07,48,6.80
2012,04,09,07,49,6.80
2012,04,09,07,50,6.80
2012,04,09,07,51,6.80
2012,04,09,07,52,6.80
2012,04,09,07,53,6.80
2012,04,09,07,54,6.80
2012,04,09,07,55,6.90
2012,04,09,07,56,6.90
2012,04,09,07,57,6.90
2012,04,09,07,58,7.00
2012,04,09,07,59,7.10
2012,04,09,08,00,7.10
2012,04,09,08,01,7.10
2012,04,09,08,02,7.20
2012,04,09,08,03,7.20
2012,04,09,08,04,7.20
2012,04,09,08,05,7.20
2012,04,09,08,06,7.30
2012,04,09,08,07,7.30
2012,04,09,08,08,7.40
2012,04,09,08,09,7.40
2012,04,09,08,10,7.40
2012,04,09,08,11,7.40
2012,04,09,08,12,7.40
2012,04,09,08,13,7.50
2012,04,09,08,14,7.50
2012,04,09,08,15,7.50
2012,04,09,08,16,7.50
2012,04,09,08,17,7.50
2012,04,09,08,18,7.60
2012,04,09,08,19,7.60
2012,04,09,08,20,7.60
2012,04,09,08,21,7.60
2012,04,09,08,22,7.70
2012,04,09,08,23,7.70
2012,04,09,08,24,7.70
2012,04,09,08,25,7.70
2012,04,09,08,26,7.70
2012,04,09,08,27,7.80
2012,04,09,08,28,7.70
2012,04,09,08,29,7.70
2012,04,09,08,30,7.70
2012,04,09,08,31,7.80
2012,04,09,08,32,7.80
2012,04,09,08,33,7.80
2012,04,09,08,34,7.80
2012,04,09,08,35,7.90
2012,04,09,08,36,7.90
2012,04,09,08,37,7.90
2012,04,09,08,38,7.90
2012,04,09,08,39,7.90
2012,04,09,08,40,7.90
2012,04,09,08,41,8.00
2012,04,09,08,42,8.00
2012,04,09,08,43,8.00
2012,04,09,08,44,8.10
2012,04,09,08,45,8.10
2012,04,09,08,46,8.10
2012,04,09,08,47,8.10
2012,04,09,08,48,8.20
2012,04,09,08,49,8.20
2012,04,09,08,50,8.20
2012,04,09,08,51,8.30
2012,04,09,08,52,8.30
2012,04,09,08,53,8.40
2012,04,09,08,54,8.50
2012,04,09,08,55,8.50
2012,04,09,08,56,8.60
2012,04,09,08,57,8.70
2012,04,09,08,58,8.70
2012,04,09,08,59,8.80
2012,04,09,09,00,8.80
2012,04,09,09,01,8.90
2012,04,09,09,02,9.00
2012,04,09,09,03,9.00
2012,04,09,09,04,9.10
2012,04,09,09,05,9.10
2012,04,09,09,06,9.20
2012,04,09,09,07,9.30
2012,04,09,09,08,9.30
2012,04,09,09,09,9.30
2012,04,09,09,10,9.40
2012,04,09,09,11,9.40
2012,04,09,09,12,9.50
2012,04,09,09,13,9.50
2012,04,09,09,14,9.50
2012,04,09,09,15,9.60
2012,04,09,09,16,9.60
2012,04,09,09,17,9.60
2012,04,09,09,18,9.70
2012,04,09,09,19,9.70
2012,04,09,09,20,9.80
2012,04,09,09,21,9.80
2012,04,09,09,22,9.80
2012,04,09,09,23,9.90
2012,04,09,09,24,9.90
2012,04,09,09,25,10.00
2012,04,09,09,26,10.00
2012,04,09,09,27,10.00
2012,04,09,09,28,10.10
2012,04,09,09,29,10.10
2012,04,09,09,30,10.10
2012,04,09,09,31,10.10
2012,04,09,09,32,10.20
2012,04,09,09,33,10.20
2012,04,09,09,34,10.20
2012,04,09,09,35,10.30
2012,04,09,09,36,10.30
2012,04,09,09,37,10.40
2012,04,09,09,38,10.40
2012,04,09,09,39,10.40
2012,04,09,09,40,10.50
2012,04,09,09,41,10.50
2012,04,09,09,42,10.50
2012,04,09,09,43,10.60
2012,04,09,09,44,10.60
2012,04,09,09,45,10.60
2012,04,09,09,46,10.70
2012,04,09,09,47,10.80
2012,04,09,09,48,10.80
2012,04,09,09,49,10.90
2012,04,09,09,50,11.00
2012,04,09,09,51,11.00
2012,04,09,09,52,11.10
2012,04,09,09,53,11.20
2012,04,09,09,54,11.20
2012,04,09,09,55,11.30
2012,04,09,09,56,11.30
2012,04,09,09,57,11.40
2012,04,09,09,58,11.40
2012,04,09,09,59,11.50
2012,04,09,10,00,11.50
2012,04,09,10,01,11.60
2012,04,09,10,02,11.70
2012,04,09,10,03,11.80
2012,04,09,10,04,11.80
2012,04,09,10,05,11.80
2012,04,09,10,06,11.90
2012,04,09,10,07,11.90
2012,04,09,10,08,11.90
2012,04,09,10,09,11.90
2012,04,09,10,10,11.80
2012,04,09,10,11,11.80
2012,04,09,10,12,11.80
2012,04,09,10,13,11.90
2012,04,09,10,14,11.90
2012,04,09,10,15,12.00
2012,04,09,10,16,12.10
2012,04,09,10,17,12.20
2012,04,09,10,18,12.20
2012,04,09,10,19,12.30
2012,04,09,10,20,12.30
2012,04,09,10,21,12.40
2012,04,09,10,22,12.40
2012,04,09,10,23,12.50
2012,04,09,10,24,12.50
2012,04,09,10,25,12.60
2012,04,09,10,26,12.60
2012,04,09,10,27,12.70
2012,04,09,10,28,12.70
2012,04,09,10,29,12.70
2012,04,09,10,30,12.80
2012,04,09,10,31,12.80
2012,04,09,10,32,12.80
2012,04,09,10,33,12.90
2012,04,09,10,34,13.00
2012,04,09,10,35,13.00
2012,04,09,10,36,13.00
2012,04,09,10,37,13.10
2012,04,09,10,38,13.10
2012,04,09,10,39,13.20
2012,04,09,10,40,13.20
2012,04,09,10,41,13.20
2012,04,09,10,42,13.20
2012,04,09,10,43,13.30
2012,04,09,10,44,13.30
2012,04,09,10,45,13.30
2012,04,09,10,46,13.40
2012,04,09,10,47,13.50
2012,04,09,10,48,13.50
2012,04,09,10,49,13.60
2012,04,09,10,50,13.60
2012,04,09,10,51,13.60
2012,04,09,10,52,13.60
2012,04,09,10,53,13.50
2012,04,09,10,54,13.50
2012,04,09,10,55,13.50
2012,04,09,10,56,13.60
2012,04,09,10,57,13.60
2012,04,09,10,58,13.60
2012,04,09,10,59,13.60
2012,04,09,11,00,13.70
2012,04,09,11,01,13.70
2012,04,09,11,02,13.80
2012,04,09,11,03,13.80
2012,04,09,11,04,13.80
2012,04,09,11,05,13.80
2012,04,09,11,06,13.90
2012,04,09,11,07,13.90
2012,04,09,11,08,13.90
2012,04,09,11,09,14.00
2012,04,09,11,10,14.00
2012,04,09,11,11,14.10
2012,04,09,11,12,14.20
2012,04,09,11,13,14.20
2012,04,09,11,14,14.20
2012,04,09,11,15,14.20
2012,04,09,11,16,14.20
2012,04,09,11,17,14.30
2012,04,09,11,18,14.40
2012,04,09,11,19,14.40
2012,04,09,11,20,14.50
2012,04,09,11,21,14.50
2012,04,09,11,22,14.60
2012,04,09,11,23,14.60
2012,04,09,11,24,14.60
2012,04,09,11,25,14.70
2012,04,09,11,26,14.80
2012,04,09,11,27,14.80
2012,04,09,11,28,14.80
2012,04,09,11,29,14.70
2012,04,09,11,30,14.80
2012,04,09,11,31,14.80
2012,04,09,11,32,14.90
2012,04,09,11,33,14.90
2012,04,09,11,34,15.00
2012,04,09,11,35,15.00
2012,04,09,11,36,15.00
2012,04,09,11,37,15.00
2012,04,09,11,38,15.00
2012,04,09,11,39,15.00
2012,04,09,11,40,15.00
2012,04,09,11,41,15.00
2012,04,09,11,42,15.00
2012,04,09,11,43,15.00
2012,04,09,11,44,15.00
2012,04,09,11,45,15.00
2012,04,09,11,46,15.00
2012,04,09,11,47,15.00
2012,04,09,11,48,15.00
2012,04,09,11,49,15.00
2012,04,09,11,50,15.00
2012,04,09,11,51,15.00
2012,04,09,11,52,15.00
2012,04,09,11,53,15.00
2012,04,09,11,54,15.00
2012,04,09,11,55,15.00
2012,04,09,11,56,15.00
2012,04,09,11,57,15.00
2012,04,09,11,58,15.00
2012,04,09,11,59,15.00
2012,04,09,12,00,15.10
2012,04,09,12,01,15.20
2012,04,09,12,02,15.30
2012,04,09,12,03,15.30
2012,04,09,12,04,15.30
2012,04,09,12,05,15.40
2012,04,09,12,06,15.40
2012,04,09,12,07,15.40
2012,04,09,12,08,15.30
2012,04,09,12,09,15.30
2012,04,09,12,10,15.30
2012,04,09,12,11,15.20
2012,04,09,12,12,15.20
2012,04,09,12,13,15.20
2012,04,09,12,14,15.20
2012,04,09,12,15,15.30
2012,04,09,12,16,15.40
2012,04,09,12,17,15.50
2012,04,09,12,18,15.60
2012,04,09,12,19,15.60
2012,04,09,12,20,15.70
2012,04,09,12,21,15.70
2012,04,09,12,22,15.70
2012,04,09,12,23,15.60
2012,04,09,12,24,15.50
2012,04,09,12,25,15.50
2012,04,09,12,26,15.40
2012,04,09,12,27,15.40
2012,04,09,12,28,15.40
2012,04,09,12,29,15.40
2012,04,09,12,30,15.40
2012,04,09,12,31,15.40
2012,04,09,12,32,15.40
2012,04,09,12,33,15.40
2012,04,09,12,34,15.40
2012,04,09,12,35,15.50
2012,04,09,12,36,15.50
2012,04,09,12,37,15.50
2012,04,09,12,38,15.50
2012,04,09,12,39,15.60
2012,04,09,12,40,15.60
2012,04,09,12,41,15.60
2012,04,09,12,42,15.60
2012,04,09,12,43,15.70
2012,04,09,12,44,15.70
2012,04,09,12,45,15.70
2012,04,09,12,46,15.80
2012,04,09,12,47,15.80
2012,04,09,12,48,15.90
2012,04,09,12,49,15.90
2012,04,09,12,50,15.90
2012,04,09,12,51,15.90
2012,04,09,12,52,15.90
2012,04,09,12,53,15.90
2012,04,09,12,54,15.90
2012,04,09,12,55,15.90
2012,04,09,12,56,15.90
2012,04,09,12,57,16.00
2012,04,09,12,58,16.00
2012,04,09,12,59,16.10
2012,04,09,13,00,16.10
2012,04,09,13,01,16.20
2012,04,09,13,02,16.20
2012,04,09,13,03,16.20
2012,04,09,13,04,16.20
2012,04,09,13,05,16.30
2012,04,09,13,06,16.30
2012,04,09,13,07,16.30
2012,04,09,13,08,16.30
2012,04,09,13,09,16.40
2012,04,09,13,10,16.40
2012,04,09,13,11,16.50
2012,04,09,13,12,16.60
2012,04,09,13,13,16.70
2012,04,09,13,14,16.70
2012,04,09,13,15,16.70
2012,04,09,13,16,16.70
2012,04,09,13,17,16.60
2012,04,09,13,18,16.70
2012,04,09,13,19,16.70
2012,04,09,13,20,16.80
2012,04,09,13,21,16.80
2012,04,09,13,22,16.80
2012,04,09,13,23,16.90
2012,04,09,13,24,17.00
2012,04,09,13,25,17.10
2012,04,09,13,26,17.20
2012,04,09,13,27,17.20
2012,04,09,13,28,17.20
2012,04,09,13,29,17.10
2012,04,09,13,30,17.20
2012,04,09,13,31,17.20
2012,04,09,13,32,17.30
2012,04,09,13,33,17.30
2012,04,09,13,34,17.20
2012,04,09,13,35,17.10
2012,04,09,13,36,17.10
2012,04,09,13,37,17.10
2012,04,09,13,38,17.20
2012,04,09,13,39,17.10
2012,04,09,13,40,17.10
2012,04,09,13,41,17.00
2012,04,09,13,42,16.90
2012,04,09,13,43,16.90
2012,04,09,13,44,16.90
2012,04,09,13,45,16.90
2012,04,09,13,46,16.90
2012,04,09,13,47,16.90
2012,04,09,13,48,16.90
2012,04,09,13,49,16.90
2012,04,09,13,50,16.90
2012,04,09,13,51,16.80
2012,04,09,13,52,16.80
2012,04,09,13,53,16.80
2012,04,09,13,54,16.70
2012,04,09,13,55,16.60
2012,04,09,13,56,16.40
2012,04,09,13,57,16.50
2012,04,09,13,58,16.60
2012,04,09,13,59,16.60
2012,04,09,14,00,16.70
2012,04,09,14,01,16.60
2012,04,09,14,02,16.60
2012,04,09,14,03,16.60
2012,04,09,14,04,16.50
2012,04,09,14,05,16.40
2012,04,09,14,06,16.40
2012,04,09,14,07,16.40
2012,04,09,14,08,16.40
2012,04,09,14,09,16.40
2012,04,09,14,10,16.50
2012,04,09,14,11,16.60
2012,04,09,14,12,16.70
2012,04,09,14,13,16.70
2012,04,09,14,14,16.70
2012,04,09,14,15,16.80
2012,04,09,14,16,16.80
2012,04,09,14,17,16.90
2012,04,09,14,18,16.90
2012,04,09,14,19,16.90
2012,04,09,14,20,16.90
2012,04,09,14,21,16.90
2012,04,09,14,22,17.00
2012,04,09,14,23,17.00
2012,04,09,14,24,17.10
2012,04,09,14,25,17.10
2012,04,09,14,26,17.20
2012,04,09,14,27,17.30
2012,04,09,14,28,17.30
2012,04,09,14,29,17.20
2012,04,09,14,30,17.10
2012,04,09,14,31,17.10
2012,04,09,14,32,17.20
2012,04,09,14,33,17.20
2012,04,09,14,34,17.20
2012,04,09,14,35,17.20
2012,04,09,14,36,17.30
2012,04,09,14,37,17.30
2012,04,09,14,38,17.40
2012,04,09,14,39,17.40
2012,04,09,14,40,17.40
2012,04,09,14,41,17.40
2012,04,09,14,42,17.30
2012,04,09,14,43,17.20
2012,04,09,14,44,17.10
2012,04,09,14,45,17.10
2012,04,09,14,46,17.00
2012,04,09,14,47,16.90
2012,04,09,14,48,16.80
2012,04,09,14,49,16.80
2012,04,09,14,50,16.70
2012,04,09,14,51,16.70
2012,04,09,14,52,16.70
2012,04,09,14,53,16.70
2012,04,09,14,54,16.70
2012,04,09,14,55,16.70
2012,04,09,14,56,16.70
2012,04,09,14,57,16.70
2012,04,09,14,58,16.70
2012,04,09,14,59,16.70
2012,04,09,15,00,16.70
2012,04,09,15,01,16.80
2012,04,09,15,02,16.70
2012,04,09,15,03,16.70
2012,04,09,15,04,16.80
2012,04,09,15,05,16.80
2012,04,09,15,06,16.70
2012,04,09,15,07,16.70
2012,04,09,15,08,16.80
2012,04,09,15,09,16.80
2012,04,09,15,10,16.80
2012,04,09,15,11,16.90
2012,04,09,15,12,16.90
2012,04,09,15,13,17.00
2012,04,09,15,14,17.10
2012,04,09,15,15,17.10
2012,04,09,15,16,17.10
2012,04,09,15,17,17.00
2012,04,09,15,18,17.10
2012,04,09,15,19,17.10
2012,04,09,15,20,17.10
2012,04,09,15,21,17.20
2012,04,09,15,22,17.20
2012,04,09,15,23,17.20
2012,04,09,15,24,17.30
2012,04,09,15,25,17.30
2012,04,09,15,26,17.30
2012,04,09,15,27,17.30
2012,04,09,15,28,17.20
2012,04,09,15,29,17.10
2012,04,09,15,30,17.10
2012,04,09,15,31,17.10
2012,04,09,15,32,17.00
2012,04,09,15,33,17.00
2012,04,09,15,34,17.10
2012,04,09,15,35,17.10
2012,04,09,15,36,17.20
2012,04,09,15,37,17.30
2012,04,09,15,38,17.30
2012,04,09,15,39,17.30
2012,04,09,15,40,17.40
2012,04,09,15,41,17.30
2012,04,09,15,42,17.40
2012,04,09,15,43,17.40
2012,04,09,15,44,17.30
2012,04,09,15,45,17.40
2012,04,09,15,46,17.40
2012,04,09,15,47,17.40
2012,04,09,15,48,17.50
2012,04,09,15,49,17.60
2012,04,09,15,50,17.60
2012,04,09,15,51,17.70
2012,04,09,15,52,17.70
2012,04,09,15,53,17.70
2012,04,09,15,54,17.70
2012,04,09,15,55,17.70
2012,04,09,15,56,17.80
2012,04,09,15,57,17.80
2012,04,09,15,58,17.80
2012,04,09,15,59,17.80
2012,04,09,16,00,17.80
2012,04,09,16,01,17.80
2012,04,09,16,02,17.80
2012,04,09,16,03,17.80
2012,04,09,16,04,17.80
2012,04,09,16,05,17.70
2012,04,09,16,06,17.60
2012,04,09,16,07,17.60
2012,04,09,16,08,17.60
2012,04,09,16,09,17.60
2012,04,09,16,10,17.60
2012,04,09,16,11,17.60
2012,04,09,16,12,17.60
2012,04,09,16,13,17.70
2012,04,09,16,14,17.70
2012,04,09,16,15,17.70
2012,04,09,16,16,17.70
2012,04,09,16,17,17.70
2012,04,09,16,18,17.70
2012,04,09,16,19,17.70
2012,04,09,16,20,17.70
2012,04,09,16,21,17.80
2012,04,09,16,22,17.80
2012,04,09,16,23,17.80
2012,04,09,16,24,17.80
2012,04,09,16,25,17.80
2012,04,09,16,26,17.80
2012,04,09,16,27,17.80
2012,04,09,16,28,17.70
2012,04,09,16,29,17.70
2012,04,09,16,30,17.60
2012,04,09,16,31,17.60
2012,04,09,16,32,17.70
2012,04,09,16,33,17.70
2012,04,09,16,34,17.60
2012,04,09,16,35,17.60
2012,04,09,16,36,17.50
2012,04,09,16,37,17.50
2012,04,09,16,38,17.40
2012,04,09,16,39,17.40
2012,04,09,16,40,17.30
2012,04,09,16,41,17.30
2012,04,09,16,42,17.30
2012,04,09,16,43,17.30
2012,04,09,16,44,17.30
2012,04,09,16,45,17.40
2012,04,09,16,46,17.50
2012,04,09,16,47,17.50
2012,04,09,16,48,17.60
2012,04,09,16,49,17.60
2012,04,09,16,50,17.60
2012,04,09,16,51,17.70
2012,04,09,16,52,17.70
2012,04,09,16,53,17.70
2012,04,09,16,54,17.70
2012,04,09,16,55,17.70
2012,04,09,16,56,17.70
2012,04,09,16,57,17.60
2012,04,09,16,58,17.70
2012,04,09,16,59,17.70
2012,04,09,17,00,17.70
2012,04,09,17,01,17.80
2012,04,09,17,02,17.70
2012,04,09,17,03,17.70
2012,04,09,17,04,17.60
2012,04,09,17,05,17.60
2012,04,09,17,06,17.60
2012,04,09,17,07,17.50
2012,04,09,17,08,17.50
2012,04,09,17,09,17.40
2012,04,09,17,10,17.40
2012,04,09,17,11,17.40
2012,04,09,17,12,17.40
2012,04,09,17,13,17.40
2012,04,09,17,14,17.40
2012,04,09,17,15,17.40
2012,04,09,17,16,17.40
2012,04,09,17,17,17.40
2012,04,09,17,18,17.50
2012,04,09,17,19,17.50
2012,04,09,17,20,17.50
2012,04,09,17,21,17.50
2012,04,09,17,22,17.50
2012,04,09,17,23,17.40
2012,04,09,17,24,17.50
2012,04,09,17,25,17.50
2012,04,09,17,26,17.50
2012,04,09,17,27,17.40
2012,04,09,17,28,17.40
2012,04,09,17,29,17.40
2012,04,09,17,30,17.40
2012,04,09,17,31,17.40
2012,04,09,17,32,17.40
2012,04,09,17,33,17.40
2012,04,09,17,34,17.50
2012,04,09,17,35,17.50
2012,04,09,17,36,17.50
2012,04,09,17,37,17.50
2012,04,09,17,38,17.40
2012,04,09,17,39,17.40
2012,04,09,17,40,17.40
2012,04,09,17,41,17.40
2012,04,09,17,42,17.40
2012,04,09,17,43,17.40
2012,04,09,17,44,17.40